Regional Weather Roundup
Issued by NWS

Home | Current Version | Previous Version | Text Only | Print | Product List | Glossary Off
Versions: 1 2 3 4 5 6 7 8 9 10 11 12 13 14 15 16 17 18 19 20 21 22 23 24 25 26 27 28 29 30 31 32 33 34 35 36 37 38 39 40 41 42 43 44 45 46 47 48 49 50

000
ASUS43 KLOT 301406
RWRIL

ILLINOIS REGIONAL WEATHER ROUNDUP
NATIONAL WEATHER SERVICE CHICAGO/ROMEOVILLE IL
900 AM CDT SAT AUG 30 2014

NOTE: "FAIR" INDICATES FEW OR NO CLOUDS BELOW 12,000 FEET WITH NO
SIGNIFICANT WEATHER AND/OR OBSTRUCTIONS TO VISIBILITY.

* THESE STATIONS ARE NOT UNDER NWS QUALITY CONTROL. THEY ALSO MAY NOT
  REPORT WEATHER SUCH AS PRECIPITATION OR FOG.

ILZ001-002-007-009-015-016-024-301500-
NORTHWEST ILLINOIS

CITY           SKY/WX    TMP DP  RH WIND       PRES   REMARKS
MOLINE         CLOUDY    71  67  87 SW10      29.85R
STERLING*      CLOUDY    72  66  83 W6        29.85R
SAVANNA*       CLOUDY    71  65  82 W15       29.83R
$$

ILZ003-004-008-010-011-017-018-301500-
NORTH CENTRAL ILLINOIS

CITY           SKY/WX    TMP DP  RH WIND       PRES   REMARKS
ROCKFORD       CLOUDY    71  67  87 SW8       29.84S
FREEPORT*      CLOUDY    70  68  94 S14       29.84S
ROCHELLE*      CLOUDY    72  69  90 S13G18    29.85S
DE KALB*       CLOUDY    71  68  92 S15       29.86F
PERU*          PTSUNNY   75  70  83 SW14G24   29.87S
$$

ILZ005-006-012>014-019>023-301500-
NORTHEAST ILLINOIS

CITY           SKY/WX    TMP DP  RH WIND       PRES   REMARKS
CHICAGO-OHARE  PTSUNNY   75  67  76 SW12      29.85S
CHICAGO-MIDWAY PTSUNNY   77  71  82 SW12      29.86S
AURORA         CLOUDY    74  69  85 SW13      29.86S HAZE
LANSING*         N/A    N/A N/A N/A MISG        N/A
JOLIET*        PTSUNNY   74  68  83 SW9       29.89R
WAUKEGAN       PTSUNNY   73  68  84 SW13      29.83S
DUPAGE AIRPORT CLOUDY    74  69  85 SW14      29.86S
KANKAKEE*      PTSUNNY   74  71  88 S12       29.91S
WHEELING       CLOUDY    76  70  82 S13       29.86S
MORRIS*        MOSUNNY   74  71  89 SW9       29.88R
ROMEOVILLE*    CLOUDY    74  70  87 SW12G17   29.88R
NORTHERLY ISL    N/A     75  68  78 S12         N/A
$$

LMZ740>746-301500-
SOUTHERN LAKE MICHIGAN

STATION/POSITION SKY/WX   TEMP    WIND        PRES    VSBY  WAVE
                          AIR SEA DIR/SP/G                  HT/PER
                          (F)     (DEG/KT/KT) (MB)    (MI)  (FT/S)
SOUTHERN BUOY              71 69  180/ 12/ 14   N/A
WAUKEGAN HARBOR            74     220/ 13/ 17   N/A
HARRISON CRIB              74     200/ 18/ 21   N/A
BURNHAM HARBOR             75     200/ 13/ 15   N/A
CALUMET HARBOR             75     200/ 10/ 15 1010.2F
MICHIGAN CITY              73     170/ 13/ 17   N/A
MICHIGAN CITY 6N           74 72  200/ 12/ 16   N/A           2/ 3
ST. JOSEPH                 73 71  190/ 12/ 16   N/A           2/ 4
$$

ILZ025>027-034>036-040-047-049-050-058-095>099-301500-
WEST-CENTRAL ILLINOIS

CITY           SKY/WX    TMP DP  RH WIND       PRES   REMARKS
QUINCY         MOSUNNY   75  70  84 SW9       29.90S
GALESBURG*     CLOUDY    72  69  89 SW9G16    29.89S
MACOMB*        MOSUNNY   72  69  91 SW10      29.92S
JACKSONVILLE*  SUNNY     77  71  82 SW12      29.93R
PITTSFIELD*    SUNNY     76  69  78 SW9       29.93R
$$

ILZ028>032-037-038-041>044-048-051>054-059>061-301500-
CENTRAL ILLINOIS

CITY           SKY/WX    TMP DP  RH WIND       PRES   REMARKS
PONTIAC        PTSUNNY   77  73  88 SW13      29.90S
DECATUR        CLOUDY    75  69  81 SW15      29.95S
PEORIA         PTSUNNY   74  69  85 SW10      29.89S
LACON*         PTSUNNY   74  69  84 SW9G16    29.87S
LINCOLN*       PTSUNNY   74  70  86 S8        29.89S
SPRINGFIELD    MOSUNNY   76  70  82 S9G20     29.92F
TAYLORVILLE    PTSUNNY   72  70  94 S8        29.95S
$$

ILZ033-039-045-046-055>057-062-063-301500-
EAST-CENTRAL ILLINOIS

CITY           SKY/WX    TMP DP  RH WIND       PRES   REMARKS
CHAMPAIGN      CLOUDY    75  70  84 S10       29.95S
DANVILLE*      RAIN      73  70  92 S10       29.94S
RANTOUL*       PTSUNNY   76  68  74 SW12G18   29.95S
MATTOON        PTSUNNY   74  68  81 S9        29.97R
PARIS*         CLOUDY    74  71  88 S10       29.99R
$$

ILZ079-100>102-301500-
SOUTHWEST ILLINOIS

CITY           SKY/WX    TMP DP  RH WIND       PRES   REMARKS
ALTON          PTSUNNY   75  70  83 S6        29.96
BELLEVILLE     PTSUNNY   76  73  89 VRB5      29.96R
CAHOKIA*       PTSUNNY   79  70  74 VRB7      29.95S HX  82
SPARTA*        PTSUNNY   73  70  91 S10G16    30.00R
$$

ILZ064>066-069>071-074>076-080>082-084>086-088>090-092>094-301500-
SOUTH-CENTRAL ILLINOIS

CITY           SKY/WX    TMP DP  RH WIND       PRES   REMARKS
CARBONDALE     RAIN      73  69  87 SW13G22   30.01S FOG
CAIRO*         CLOUDY    78  73  82 CALM      30.01R HX  81
EFFINGHAM*     RAIN      73  68  86 S7        29.98R
MARION         RAIN      73  72  94 SW6       30.02R
MT. VERNON     CLOUDY    73  68  83 SE5       30.00F
CENTRALIA*     PTSUNNY   73  68  83 S9        29.98S
SALEM*         PTSUNNY   75  72  89 S7        29.98S
METROPOLIS*    CLOUDY    78  70  78 S3        30.00S
$$

ILZ067-068-072-073-078-083-087-091-301500-
SOUTHEAST ILLINOIS

CITY           SKY/WX    TMP DP  RH WIND       PRES   REMARKS
LAWRENCEVILLE  RAIN      73  71  93 S10       30.01S FOG
FLORA*         LGT RAIN  72  70  94 S13       30.00R
FAIRFIELD*     CLOUDY    73  72  94 CALM      30.00F
HARRISBURG*    CLOUDY    74  73  96 SW5       30.03R
ROBINSON*      LGT RAIN  74  73  93 S9        30.00F
CARMI*         CLOUDY    76  73  90 CALM      30.01R
$$

ABBREVIATIONS USED IN REMARKS
   TC - TEMPERATURE IN CELSIUS
  WCI - WIND CHILL INDEX
   HX - HEAT INDEX
  VSB - VISIBILITY
$$




USA.gov is the U.S. government's official web portal to all federal, state and local government web resources and services.